If you wish to contribute or participate in the discussions about articles you are invited to join SKYbrary as a registered user

 Actions

Dinard-Pleurtuit-Saint-Malo Airport

From SKYbrary Wiki

LFRD
Airport
ICAO: LFRD – IATA: DNR
Summary
Name Dinard-Pleurtuit-Saint-Malo Airport
Region Europe
Territory France FR.gif
Location , Bretagne
Serving Dinard
Elevation 66.751 m
219 ft
219 ft66.751 m
Type medium airport
Coordinates 48° 35' 15.66" N, 2° 4' 47.85" W
Runways
Designator Length Width Surface ROPS
12/30 1435 m4,708.005 ft
45 m147.638 ft
ASP yes/yes
17/35 2200 m7,217.848 ft
45 m147.638 ft
ASP yes/yes


METAR
Observation LFRD 251230Z AUTO 28013KT 9999 FEW036 SCT056 10/06 Q1008 TEMPO 27025G50KT 2000 TSRAGS BKN015CB
Station Dinard
Date/Time 25 February 2020 12:30:00
Wind direction 280°
Wind speed 13 kts
Lowest cloud amount few clouds
Temperature 10°C
Dew point 6°C
Humidity 76%
QNH 1008 hPa
Weather condition n/a